Tracking 27124 objects as of 31-Mar-2023
HD Live streaming from Space Station
objects crossing your sky now

STARLINK-3340

Track STARLINK-3340 now!
10-day predictions
STARLINK-3340 is classified as:


NORAD ID: 50824
Int'l Code: 2022-001X
Perigee: 546.3 km
Apogee: 547.4 km
Inclination: 53.2 °
Period: 95.4 minutes
Semi major axis: 6917 km
RCS: Unknown
Launch date: January 6, 2022
Source: United States (US)
Launch site: AIR FORCE EASTERN TEST RANGE (AFETR)
Your satellite tracking list
Your tracking list is empty




NASA's NSSDC Master Catalog

Two Line Element Set (TLE):
1 50824U 22001X   23089.79564575 -.00002947  00000-0 -16719-3 0  9995
2 50824  53.2155 314.5066 0000799 104.9042 255.2039 15.08835159 68131
Source of the keplerian elements: AFSPC